DW8102 Weather Reports


Display with metric or nautical units.
time (UTC)temp
F
wind
direction
speed
MPH
gust
MPH
rain 1hr
in
rain 24hr
in
rain mn
in
humidity
%
barometer
mb
20260906191555 60 232 0.0 4.0 0.00 0.00 0.00 75 1016.1
20260906190054 61 205 1.0 5.0 0.00 0.00 0.00 73 1016.1
20260906184553 61 248 2.0 7.0 0.00 0.00 0.00 74 1016.0
20260906183102 60 207 0.0 5.0 0.00 0.00 0.00 73 1015.9
20260906181553 60 208 0.0 2.0 0.00 0.00 0.00 74 1015.8
20260906180104 60 222 0.0 0.0 0.00 0.00 0.00 79 1015.6
20260906174550 62 224 0.0 0.0 0.00 0.00 0.00 78 1015.4
20260906173045 63 221 0.0 0.0 0.00 0.00 0.00 72 1015.2
20260906171557 65 213 0.0 3.0 0.00 0.00 0.00 69 1015.1
20260906170049 66 280 1.0 4.0 0.00 0.00 0.00 68 1015.1
20260906164541 67 274 1.0 4.0 0.00 0.00 0.00 61 1015.0
20260906163040 67 201 0.0 2.0 0.00 0.00 0.00 62 1015.0
20260906161552 65 203 0.0 1.0 0.00 0.00 0.00 67 1015.0
20260906160038 63 204 0.0 1.0 0.00 0.00 0.00 69 1015.1
20260906154544 62 203 0.0 1.0 0.00 0.00 0.00 71 1014.9
20260906153043 62 201 0.0 1.0 0.00 0.00 0.00 72 1014.8
20260906151535 63 222 0.0 2.0 0.00 0.00 0.00 71 1014.8
20260906150037 64 222 1.0 5.0 0.00 0.00 0.00 67 1014.7
20260906144535 64 207 0.0 3.0 0.00 0.00 0.00 66 1014.8
20260906143033 64 200 1.0 6.0 0.00 0.00 0.00 68 1014.7
20260906141532 65 277 1.0 4.0 0.00 0.00 0.00 66 1014.7
20260906140035 66 211 1.0 6.0 0.00 0.00 0.00 62 1014.6
20260906134530 68 183 2.0 6.0 0.00 0.00 0.00 60 1014.4
20260906133031 67 253 0.0 6.0 0.00 0.00 0.00 62 1014.5
20260906131523 66 253 2.0 5.0 0.00 0.00 0.00 63 1014.3
20260906130023 65 266 2.0 6.0 0.00 0.00 0.00 64 1014.4
20260906124517 65 271 2.0 5.0 0.00 0.00 0.00 64 1014.3
20260906123019 65 276 3.0 5.0 0.00 0.00 0.00 65 1014.3
20260906121530 64 277 2.0 6.0 0.00 0.00 0.00 65 1014.3
20260906120013 64 267 1.0 5.0 0.00 0.00 0.00 65 1014.2
20260906114520 63 264 2.0 6.0 0.00 0.00 0.00 69 1014.1
20260906113009 63 262 2.0 5.0 0.00 0.00 0.00 68 1014.1
20260906111506 63 257 3.0 6.0 0.00 0.00 0.00 72 1014.1
20260906110004 63 274 3.0 5.0 0.00 0.00 0.00 71 1014.0
20260906104504 62 276 2.0 3.0 0.00 0.00 0.00 70 1013.9
20260906103006 62 262 1.0 3.0 0.00 0.00 0.00 71 1013.8
20260906101615 62 257 1.0 4.0 0.00 0.00 0.00 73 1013.6
20260906100059 61 273 1.0 4.0 0.00 0.00 0.00 78 1013.5
20260906094605 61 277 1.0 4.0 0.00 0.00 0.00 76 1013.4
20260906093056 60 276 0.0 1.0 0.00 0.00 0.00 78 1013.2
20260906091556 60 273 0.0 1.0 0.00 0.00 0.00 79 1013.2
20260906090056 59 277 0.0 1.0 0.00 0.00 0.00 81 1013.2
20260906084557 58 300 0.0 3.0 0.00 0.00 0.00 82 1013.2
20260906083053 57 248 0.0 2.0 0.00 0.00 0.00 83 1013.1
20260906081552 56 280 1.0 3.0 0.00 0.00 0.00 85 1013.0
20260906080054 55 276 1.0 3.0 0.00 0.00 0.00 86 1012.9
20260906074549 55 281 1.0 4.0 0.00 0.00 0.00 88 1012.8
20260906073047 55 271 1.0 4.0 0.00 0.00 0.00 90 1012.6
20260906071545 54 270 1.0 4.0 0.00 0.00 0.00 92 1012.3
20260906070045 53 283 2.0 6.0 0.00 0.00 0.00 95 1012.2
20260906064544 52 263 1.0 6.0 0.00 0.00 0.00 96 1012.1
20260906063042 52 236 1.0 5.0 0.00 0.00 0.00 97 1011.9
20260906061546 51 270 1.0 4.0 0.00 0.00 0.00 97 1011.8
20260906060050 50 263 0.0 3.0 0.00 0.00 0.00 97 1011.7
20260906054544 50 266 0.0 3.0 0.00 0.00 0.00 97 1011.5
20260906053037 50 203 0.0 2.0 0.00 0.00 0.00 97 1011.3
20260906051537 0 0.0 0.0 0.00 0.00 0.00 1011.0
20260906050033 0 0.0 0.0 0.00 0.00 0.00 1010.9
20260906044527 0 0.0 0.0 0.00 0.00 0.00 1010.7
20260906043030 0 0.0 0.0 0.00 0.00 0.00 1010.6
20260906041519 0 0.0 0.0 0.00 0.00 0.00 1010.5
20260906040016 0 0.0 0.0 0.00 0.00 0.00 1010.3
20260906034518 0 0.0 0.0 0.00 0.00 0.00 1010.3
20260906033011 51 221 0.0 1.0 0.00 0.00 0.00 97 1010.2
20260906031609 51 221 0.0 0.0 0.00 0.00 0.00 97 1010.0
20260906030006 51 222 0.0 0.0 0.00 0.00 0.00 97 1009.8
20260906024505 50 226 0.0 1.0 0.00 0.00 0.00 97 1009.7
20260906023003 50 218 0.0 0.0 0.00 0.00 0.00 97 1009.6
20260906021501 50 246 0.0 0.0 0.00 0.00 0.00 96 1009.3
20260906020101 50 248 0.0 0.0 0.00 0.00 0.00 96 1009.2
20260906014558 50 295 0.0 0.0 0.00 0.00 0.00 96 1009.1
20260906013056 50 295 0.0 0.0 0.00 0.00 0.00 96 1009.0
20260906011554 51 295 0.0 0.0 0.00 0.00 0.00 96 1008.8
20260906010133 50 295 0.0 0.0 0.00 0.00 0.00 95 1008.7
20260906004608 51 295 0.0 0.0 0.00 0.00 0.00 95 1008.5
20260906003047 51 295 0.0 0.0 0.00 0.00 0.00 95 1008.2
20260906001559 51 295 0.0 0.0 0.00 0.00 0.00 95 1008.1
20260906000046 52 295 0.0 0.0 0.00 0.00 0.00 95 1007.9
20260905234543 51 296 0.0 0.0 0.00 0.00 0.00 94 1007.6
20260905233042 51 304 0.0 0.0 0.00 0.00 0.00 94 1007.5
20260905231540 51 303 0.0 0.0 0.00 0.00 0.00 93 1007.3
20260905230037 52 303 0.0 0.0 0.00 0.00 0.00 92 1007.2
20260905224533 52 303 0.0 0.0 0.00 0.00 0.00 92 1007.0
20260905223041 53 303 0.0 0.0 0.00 0.00 0.00 91 1006.9
20260905221524 53 304 0.0 0.0 0.00 0.00 0.00 90 1006.6
20260905220023 54 304 0.0 0.0 0.00 0.00 0.00 90 1006.3
20260905214519 54 303 0.0 1.0 0.00 0.00 0.00 91 1006.3
20260905213019 53 149 0.0 0.0 0.00 0.00 0.00 90 1006.0
20260905211515 54 149 0.0 0.0 0.00 0.01 0.00 87 1005.6
20260905210012 55 149 0.0 0.0 0.00 0.01 0.00 87 1005.5
20260905204508 56 338 0.0 0.0 0.00 0.01 0.00 84 1005.2
20260905203003 57 338 0.0 2.0 0.00 0.01 0.00 84 1005.1
20260905201559 57 354 0.0 2.0 0.00 0.09 0.00 84 1004.8
20260905200118 57 341 1.0 2.0 0.00 0.09 0.00 84 1004.5
20260905194554 57 8 0.0 1.0 0.00 0.09 0.00 84 1004.3
20260905193053 57 330 0.0 3.0 0.00 0.09 0.00 87 1004.2